Location: Excel
(51.3833°N, 110.5667°W)
Time: 20:40:29
(UTC+00:00)

Envisat - Pass Details

Date: 11 December 2021
Orbit: 764 x 766 km, 98.2° (Epoch: 26 January)

Event Time Altitude Azimuth Distance (km) Brightness Sun altitude
Rises 12:49:54 0° 13° (NNE) 3,247 6.3 -21.7°
Reaches altitude 10° 12:52:13 10° 11° (N) 2,316 5.5 -21.4°
Maximum altitude 12:57:18 72° 288° (WNW) 808 2.9 -20.6°
Drops below altitude 10° 13:02:21 10° 205° (SSW) 2,298 5.3 -19.8°
Sets 13:04:39 0° 203° (SSW) 3,220 6.1 -19.5°
